| time (UTC) | temp C | wind direction | speed KPH | gust KPH | rain 1hr cm | rain 24hr cm | rain mn cm | humidity % | barometer mb |
| 20260906052306 | 26 | 44 | 0.0 | 3.2 | 0.00 | 0.00 | 0.00 | 86 | 1013.2 |
| 20260906051806 | 26 | 135 | 0.0 | 4.8 | 0.00 | 0.00 | 0.00 | 87 | 1013.5 |
| 20260906051305 | 26 | 191 | 0.0 | 6.4 | 0.00 | 0.00 | 0.00 | 89 | 1013.2 |
| 20260906050805 | 26 | 191 | 0.0 | 6.4 | 0.00 | 0.00 | 0.00 | 89 | 1013.2 |
| 20260906050305 | 26 | 123 | 1.6 | 4.8 | 0.00 | 0.00 | 0.00 | 88 | 1013.2 |
| 20260906045805 | 27 | 62 | 0.0 | 3.2 | 0.00 | 0.00 | 0.00 | 87 | 1013.2 |
| 20260906045306 | 26 | 341 | 0.0 | 3.2 | 0.00 | 0.00 | 0.00 | 87 | 1013.2 |
| 20260906044805 | 26 | 76 | 0.0 | 3.2 | 0.00 | 0.00 | 0.00 | 88 | 1013.2 |
| 20260906044305 | 26 | 325 | 0.0 | 3.2 | 0.00 | 0.00 | 0.00 | 88 | 1013.2 |
| 20260906043805 | 27 | 326 | 0.0 | 4.8 | 0.00 | 0.00 | 0.00 | 87 | 1013.5 |
| 20260906043306 | 27 | 331 | 0.0 | 4.8 | 0.00 | 0.00 | 0.00 | 88 | 1013.5 |
| 20260906042805 | 27 | 327 | 3.2 | 4.8 | 0.00 | 0.00 | 0.00 | 87 | 1013.5 |
| 20260906042306 | 27 | 342 | 1.6 | 4.8 | 0.00 | 0.00 | 0.00 | 88 | 1013.5 |
| 20260906041805 | 27 | 339 | 3.2 | 4.8 | 0.00 | 0.00 | 0.00 | 88 | 1013.2 |
| 20260906041305 | 27 | 338 | 3.2 | 4.8 | 0.00 | 0.00 | 0.00 | 87 | 1013.2 |
| 20260906040805 | 27 | 350 | 1.6 | 3.2 | 0.00 | 0.00 | 0.00 | 87 | 1013.2 |
| 20260906040305 | 27 | 242 | 0.0 | 1.6 | 0.00 | 0.00 | 0.00 | 87 | 1013.2 |
| 20260906035806 | 27 | 230 | 0.0 | 3.2 | 0.00 | 0.00 | 0.00 | 88 | 1012.8 |
| 20260906035306 | 27 | 224 | 0.0 | 3.2 | 0.00 | 0.00 | 0.00 | 87 | 1013.2 |
| 20260906034805 | 27 | 334 | 0.0 | 3.2 | 0.00 | 0.00 | 0.00 | 87 | 1013.2 |
| 20260906034304 | 27 | 347 | 1.6 | 6.4 | 0.00 | 0.00 | 0.00 | 86 | 1013.2 |
| 20260906033805 | 27 | 335 | 1.6 | 6.4 | 0.00 | 0.00 | 0.00 | 86 | 1013.2 |
| 20260906033305 | 27 | 328 | 6.4 | 6.4 | 0.00 | 0.00 | 0.00 | 86 | 1013.2 |
| 20260906032805 | 27 | 164 | 0.0 | 3.2 | 0.00 | 0.00 | 0.00 | 85 | 1013.2 |
| 20260906032306 | 28 | 322 | 0.0 | 3.2 | 0.00 | 0.00 | 0.00 | 84 | 1013.2 |
| 20260906031805 | 28 | 230 | 0.0 | 3.2 | 0.00 | 0.00 | 0.00 | 83 | 1013.2 |
| 20260906031305 | 27 | 89 | 0.0 | 4.8 | 0.00 | 0.00 | 0.00 | 85 | 1013.2 |
| 20260906030805 | 27 | 320 | 3.2 | 3.2 | 0.00 | 0.00 | 0.00 | 85 | 1013.5 |
| 20260906030304 | 27 | 337 | 1.6 | 3.2 | 0.00 | 0.00 | 0.00 | 84 | 1013.2 |
| 20260906025805 | 27 | 343 | 1.6 | 3.2 | 0.00 | 0.00 | 0.00 | 84 | 1013.2 |
| 20260906025306 | 28 | 336 | 1.6 | 4.8 | 0.00 | 0.00 | 0.00 | 84 | 1013.2 |
| 20260906024805 | 27 | 321 | 1.6 | 4.8 | 0.00 | 0.00 | 0.00 | 84 | 1013.2 |
| 20260906024305 | 27 | 340 | 3.2 | 3.2 | 0.00 | 0.00 | 0.00 | 84 | 1012.8 |
| 20260906023805 | 27 | 303 | 0.0 | 3.2 | 0.00 | 0.00 | 0.00 | 84 | 1012.8 |
| 20260906023305 | 28 | 305 | 1.6 | 3.2 | 0.00 | 0.00 | 0.00 | 84 | 1012.8 |
| 20260906022805 | 28 | 322 | 0.0 | 1.6 | 0.00 | 0.00 | 0.00 | 83 | 1012.5 |
| 20260906022307 | 28 | 337 | 0.0 | 1.6 | 0.00 | 0.00 | 0.00 | 83 | 1012.8 |
| 20260906021805 | 28 | 129 | 0.0 | 4.8 | 0.00 | 0.00 | 0.00 | 83 | 1012.5 |
| 20260906021304 | 28 | 255 | 0.0 | 4.8 | 0.00 | 0.00 | 0.00 | 82 | 1012.5 |
| 20260906020805 | 28 | 312 | 0.0 | 3.2 | 0.00 | 0.00 | 0.00 | 82 | 1012.5 |
| 20260906020305 | 29 | 348 | 1.6 | 3.2 | 0.00 | 0.00 | 0.00 | 81 | 1012.5 |
| 20260906015805 | 28 | 69 | 0.0 | 3.2 | 0.00 | 0.00 | 0.00 | 82 | 1012.5 |
| 20260906015306 | 28 | 221 | 1.6 | 3.2 | 0.00 | 0.00 | 0.00 | 83 | 1012.1 |
| 20260906014805 | 28 | 129 | 0.0 | 1.6 | 0.00 | 0.00 | 0.00 | 83 | 1012.5 |
| 20260906014304 | 29 | 236 | 0.0 | 3.2 | 0.00 | 0.00 | 0.00 | 82 | 1012.5 |
| 20260906013805 | 29 | 153 | 1.6 | 3.2 | 0.00 | 0.00 | 0.00 | 80 | 1012.1 |
| 20260906013305 | 29 | 135 | 0.0 | 3.2 | 0.00 | 0.00 | 0.00 | 80 | 1012.1 |
| 20260906012805 | 29 | 308 | 0.0 | 3.2 | 0.00 | 0.00 | 0.00 | 80 | 1012.1 |
| 20260906012306 | 30 | 316 | 0.0 | 4.8 | 0.00 | 0.00 | 0.00 | 80 | 1012.1 |
| 20260906011805 | 29 | 335 | 1.6 | 4.8 | 0.00 | 0.00 | 0.00 | 81 | 1012.1 |
| 20260906011305 | 29 | 160 | 0.0 | 1.6 | 0.00 | 0.00 | 0.00 | 82 | 1012.1 |
| 20260906010805 | 30 | 164 | 0.0 | 3.2 | 0.00 | 0.00 | 0.00 | 81 | 1011.8 |
| 20260906010305 | 30 | 165 | 0.0 | 3.2 | 0.00 | 0.00 | 0.00 | 78 | 1012.1 |
| 20260906005805 | 30 | 211 | 0.0 | 4.8 | 0.00 | 0.00 | 0.00 | 76 | 1011.8 |
| 20260906005306 | 31 | 321 | 0.0 | 4.8 | 0.00 | 0.00 | 0.00 | 76 | 1011.8 |
| 20260906004805 | 31 | 327 | 3.2 | 3.2 | 0.00 | 0.00 | 0.00 | 75 | 1012.1 |
| 20260906004305 | 31 | 299 | 3.2 | 3.2 | 0.00 | 0.00 | 0.00 | 73 | 1011.8 |
| 20260906003804 | 31 | 340 | 3.2 | 4.8 | 0.00 | 0.00 | 0.00 | 73 | 1011.8 |
| 20260906003305 | 31 | 269 | 1.6 | 4.8 | 0.00 | 0.00 | 0.00 | 73 | 1011.8 |
| 20260906002805 | 32 | 215 | 0.0 | 3.2 | 0.00 | 0.00 | 0.00 | 72 | 1011.8 |
| 20260906002306 | 32 | 295 | 0.0 | 4.8 | 0.00 | 0.00 | 0.00 | 70 | 1011.8 |
| 20260906001804 | 32 | 291 | 0.0 | 4.8 | 0.00 | 0.00 | 0.00 | 69 | 1011.8 |
| 20260906001305 | 32 | 328 | 3.2 | 4.8 | 0.00 | 0.00 | 0.00 | 68 | 1011.8 |
| 20260906000805 | 33 | 319 | 3.2 | 4.8 | 0.00 | 0.00 | 0.00 | 66 | 1011.8 |
| 20260906000304 | 33 | 322 | 0.0 | 4.8 | 0.00 | 0.00 | 0.00 | 64 | 1012.1 |
| 20260905235805 | 34 | 311 | 0.0 | 6.4 | 0.00 | 0.00 | 0.00 | 62 | 1011.8 |
| 20260905235306 | 34 | 5 | 3.2 | 6.4 | 0.00 | 0.00 | 0.00 | 62 | 1012.1 |
| 20260905234805 | 35 | 272 | 3.2 | 6.4 | 0.00 | 0.00 | 0.00 | 60 | 1012.1 |
| 20260905234305 | 35 | 318 | 3.2 | 4.8 | 0.00 | 0.00 | 0.00 | 58 | 1012.1 |
| 20260905233804 | 35 | 314 | 3.2 | 6.4 | 0.00 | 0.00 | 0.00 | 57 | 1011.8 |
| 20260905233305 | 35 | 313 | 3.2 | 6.4 | 0.00 | 0.00 | 0.00 | 54 | 1012.1 |
| 20260905232805 | 35 | 318 | 4.8 | 8.0 | 0.00 | 0.00 | 0.00 | 54 | 1011.8 |
| 20260905232306 | 35 | 321 | 4.8 | 8.0 | 0.00 | 0.00 | 0.00 | 54 | 1012.1 |
| 20260905231805 | 35 | 326 | 6.4 | 9.7 | 0.00 | 0.00 | 0.00 | 52 | 1011.8 |
| 20260905231305 | 35 | 294 | 3.2 | 9.7 | 0.00 | 0.00 | 0.00 | 51 | 1011.8 |
| 20260905230804 | 35 | 284 | 4.8 | 9.7 | 0.00 | 0.00 | 0.00 | 50 | 1011.8 |
| 20260905230305 | 35 | 312 | 6.4 | 9.7 | 0.00 | 0.00 | 0.00 | 50 | 1012.1 |
| 20260905225805 | 35 | 340 | 8.0 | 9.7 | 0.00 | 0.00 | 0.00 | 51 | 1011.8 |
| 20260905225306 | 35 | 299 | 4.8 | 9.7 | 0.00 | 0.00 | 0.00 | 49 | 1011.8 |
| 20260905224805 | 36 | 328 | 6.4 | 8.0 | 0.00 | 0.00 | 0.00 | 49 | 1011.8 |
| 20260905224305 | 36 | 321 | 6.4 | 8.0 | 0.00 | 0.00 | 0.00 | 47 | 1011.8 |
| 20260905223804 | 36 | 330 | 3.2 | 8.0 | 0.00 | 0.00 | 0.00 | 47 | 1011.8 |
| 20260905223304 | 36 | 322 | 4.8 | 9.7 | 0.00 | 0.00 | 0.00 | 46 | 1012.1 |
| 20260905222805 | 36 | 314 | 8.0 | 12.9 | 0.00 | 0.00 | 0.00 | 47 | 1011.8 |
| 20260905222306 | 36 | 324 | 4.8 | 12.9 | 0.00 | 0.00 | 0.00 | 47 | 1011.8 |
| 20260905221805 | 37 | 318 | 9.7 | 11.3 | 0.00 | 0.00 | 0.00 | 45 | 1011.8 |
| 20260905221305 | 37 | 286 | 3.2 | 8.0 | 0.00 | 0.00 | 0.00 | 44 | 1011.8 |
| 20260905220804 | 37 | 329 | 1.6 | 6.4 | 0.00 | 0.00 | 0.00 | 44 | 1011.8 |
| 20260905220305 | 37 | 259 | 3.2 | 6.4 | 0.00 | 0.00 | 0.00 | 42 | 1012.1 |
| 20260905215805 | 36 | 237 | 3.2 | 8.0 | 0.00 | 0.00 | 0.00 | 43 | 1011.8 |
| 20260905215306 | 36 | 263 | 0.0 | 8.0 | 0.00 | 0.00 | 0.00 | 45 | 1011.8 |
| 20260905214805 | 36 | 298 | 4.8 | 9.7 | 0.00 | 0.00 | 0.00 | 46 | 1011.8 |
| 20260905214304 | 36 | 326 | 4.8 | 9.7 | 0.00 | 0.00 | 0.00 | 45 | 1012.1 |
| 20260905213805 | 36 | 330 | 4.8 | 8.0 | 0.00 | 0.00 | 0.00 | 45 | 1012.1 |
| 20260905213304 | 37 | 297 | 4.8 | 8.0 | 0.00 | 0.00 | 0.00 | 43 | 1012.1 |
| 20260905212805 | 37 | 313 | 4.8 | 8.0 | 0.00 | 0.00 | 0.00 | 44 | 1012.1 |
| 20260905212306 | 36 | 338 | 4.8 | 8.0 | 0.00 | 0.00 | 0.00 | 46 | 1012.1 |
| 20260905211805 | 36 | 350 | 4.8 | 11.3 | 0.00 | 0.00 | 0.00 | 46 | 1012.1 |
| 20260905211305 | 36 | 293 | 6.4 | 11.3 | 0.00 | 0.00 | 0.00 | 44 | 1012.5 |
| 20260905210805 | 37 | 346 | 11.3 | 11.3 | 0.00 | 0.00 | 0.00 | 43 | 1012.5 |
| 20260905210304 | 38 | 290 | 3.2 | 6.4 | 0.00 | 0.00 | 0.00 | 41 | 1012.1 |
| 20260905205805 | 37 | 276 | 3.2 | 6.4 | 0.00 | 0.00 | 0.00 | 43 | 1012.1 |
| 20260905205306 | 36 | 305 | 0.0 | 11.3 | 0.00 | 0.00 | 0.00 | 43 | 1012.5 |
| 20260905204805 | 36 | 336 | 6.4 | 11.3 | 0.00 | 0.00 | 0.00 | 44 | 1012.5 |
| 20260905204304 | 37 | 327 | 6.4 | 8.0 | 0.00 | 0.00 | 0.00 | 43 | 1012.5 |
| 20260905203804 | 37 | 240 | 0.0 | 9.7 | 0.00 | 0.00 | 0.00 | 43 | 1012.5 |
| 20260905203305 | 37 | 296 | 1.6 | 9.7 | 0.00 | 0.00 | 0.00 | 43 | 1012.8 |
| 20260905202805 | 37 | 219 | 3.2 | 8.0 | 0.00 | 0.00 | 0.00 | 43 | 1012.5 |
| 20260905202306 | 37 | 0.0 | 8.0 | 0.00 | 0.00 | 0.00 | 43 | 1012.8 | |
| 20260905201805 | 37 | 227 | 3.2 | 9.7 | 0.00 | 0.00 | 0.00 | 43 | 1012.5 |
| 20260905201305 | 36 | 348 | 8.0 | 9.7 | 0.00 | 0.00 | 0.00 | 46 | 1012.5 |
| 20260905200805 | 36 | 308 | 3.2 | 12.9 | 0.00 | 0.00 | 0.00 | 46 | 1012.5 |
| 20260905200305 | 36 | 333 | 8.0 | 12.9 | 0.00 | 0.00 | 0.00 | 47 | 1012.8 |
| 20260905195805 | 36 | 279 | 6.4 | 11.3 | 0.00 | 0.00 | 0.00 | 45 | 1012.8 |
| 20260905195306 | 36 | 327 | 6.4 | 9.7 | 0.00 | 0.00 | 0.00 | 45 | 1013.2 |
| 20260905194804 | 36 | 328 | 6.4 | 8.0 | 0.00 | 0.00 | 0.00 | 44 | 1013.2 |
| 20260905194304 | 37 | 296 | 4.8 | 8.0 | 0.00 | 0.00 | 0.00 | 43 | 1013.5 |
| 20260905193803 | 37 | 73 | 3.2 | 8.0 | 0.00 | 0.00 | 0.00 | 43 | 1013.5 |
| 20260905193303 | 36 | 260 | 3.2 | 14.5 | 0.00 | 0.00 | 0.00 | 44 | 1013.5 |
| 20260905192804 | 36 | 253 | 8.0 | 14.5 | 0.00 | 0.00 | 0.00 | 45 | 1013.9 |
| 20260905192306 | 37 | 144 | 3.2 | 9.7 | 0.00 | 0.00 | 0.00 | 43 | 1013.9 |
| 20260905191804 | 36 | 356 | 3.2 | 12.9 | 0.00 | 0.00 | 0.00 | 45 | 1013.9 |
| 20260905191304 | 37 | 311 | 9.7 | 12.9 | 0.00 | 0.00 | 0.00 | 44 | 1013.9 |
| 20260905190804 | 37 | 332 | 3.2 | 8.0 | 0.00 | 0.00 | 0.00 | 43 | 1013.9 |
| 20260905190304 | 37 | 259 | 4.8 | 8.0 | 0.00 | 0.00 | 0.00 | 43 | 1014.2 |
| 20260905185804 | 36 | 235 | 1.6 | 9.7 | 0.00 | 0.00 | 0.00 | 44 | 1014.2 |
| 20260905185306 | 36 | 293 | 1.6 | 11.3 | 0.00 | 0.00 | 0.00 | 46 | 1014.6 |
| 20260905184804 | 35 | 262 | 4.8 | 14.5 | 0.00 | 0.00 | 0.00 | 47 | 1014.2 |
| 20260905184304 | 35 | 316 | 9.7 | 14.5 | 0.00 | 0.00 | 0.00 | 49 | 1014.6 |
| 20260905183803 | 36 | 305 | 8.0 | 12.9 | 0.00 | 0.00 | 0.00 | 46 | 1014.6 |
| 20260905183303 | 36 | 305 | 3.2 | 12.9 | 0.00 | 0.00 | 0.00 | 45 | 1014.2 |
| 20260905182804 | 35 | 312 | 4.8 | 11.3 | 0.00 | 0.00 | 0.00 | 47 | 1014.2 |
| 20260905182306 | 36 | 8.0 | 11.3 | 0.00 | 0.00 | 0.00 | 46 | 1014.6 | |
| 20260905181804 | 35 | 323 | 1.6 | 9.7 | 0.00 | 0.00 | 0.00 | 48 | 1014.6 |
| 20260905181304 | 35 | 205 | 4.8 | 9.7 | 0.00 | 0.00 | 0.00 | 48 | 1014.6 |
| 20260905180804 | 35 | 187 | 6.4 | 11.3 | 0.00 | 0.00 | 0.00 | 49 | 1014.6 |
| 20260905180304 | 34 | 259 | 4.8 | 14.5 | 0.00 | 0.00 | 0.00 | 51 | 1014.6 |
| 20260905175804 | 35 | 329 | 9.7 | 14.5 | 0.00 | 0.00 | 0.00 | 50 | 1014.9 |
| 20260905175306 | 35 | 232 | 4.8 | 11.3 | 0.00 | 0.00 | 0.00 | 48 | 1014.6 |
| 20260905174804 | 36 | 322 | 4.8 | 6.4 | 0.00 | 0.00 | 0.00 | 48 | 1014.6 |
| 20260905174303 | 36 | 351 | 3.2 | 6.4 | 0.00 | 0.00 | 0.00 | 48 | 1014.6 |
| 20260905173803 | 36 | 318 | 0.0 | 6.4 | 0.00 | 0.00 | 0.00 | 49 | 1014.9 |
| 20260905173303 | 35 | 314 | 3.2 | 6.4 | 0.00 | 0.00 | 0.00 | 50 | 1014.9 |
| 20260905172803 | 35 | 284 | 3.2 | 9.7 | 0.00 | 0.00 | 0.00 | 52 | 1014.9 |
| 20260905172305 | 34 | 235 | 4.8 | 12.9 | 0.00 | 0.00 | 0.00 | 53 | 1014.9 |
| 20260905171803 | 34 | 243 | 6.4 | 12.9 | 0.00 | 0.00 | 0.00 | 54 | 1014.9 |
| 20260905171304 | 35 | 300 | 6.4 | 9.7 | 0.00 | 0.00 | 0.00 | 52 | 1014.9 |
| 20260905170804 | 35 | 341 | 4.8 | 9.7 | 0.00 | 0.00 | 0.00 | 52 | 1014.9 |
| 20260905170304 | 34 | 330 | 8.0 | 11.3 | 0.00 | 0.00 | 0.00 | 53 | 1015.3 |
| 20260905165804 | 33 | 331 | 8.0 | 16.1 | 0.00 | 0.00 | 0.00 | 54 | 1015.3 |
| 20260905165306 | 33 | 309 | 9.7 | 16.1 | 0.00 | 0.00 | 0.00 | 52 | 1015.3 |
| 20260905164803 | 34 | 250 | 4.8 | 9.7 | 0.00 | 0.00 | 0.00 | 51 | 1015.3 |
| 20260905164304 | 33 | 344 | 4.8 | 17.7 | 0.00 | 0.00 | 0.00 | 53 | 1015.6 |
| 20260905163804 | 34 | 341 | 8.0 | 17.7 | 0.00 | 0.00 | 0.00 | 53 | 1015.6 |
| 20260905163304 | 35 | 343 | 4.8 | 8.0 | 0.00 | 0.00 | 0.00 | 52 | 1015.6 |
| 20260905162803 | 35 | 325 | 3.2 | 8.0 | 0.00 | 0.00 | 0.00 | 53 | 1015.6 |
| 20260905162306 | 35 | 7 | 3.2 | 8.0 | 0.00 | 0.00 | 0.00 | 53 | 1015.6 |
| 20260905161804 | 35 | 343 | 0.0 | 6.4 | 0.00 | 0.00 | 0.00 | 53 | 1015.6 |
| 20260905161304 | 34 | 315 | 1.6 | 6.4 | 0.00 | 0.00 | 0.00 | 55 | 1015.6 |
| 20260905160803 | 33 | 337 | 3.2 | 8.0 | 0.00 | 0.00 | 0.00 | 57 | 1015.6 |
| 20260905160303 | 33 | 349 | 3.2 | 8.0 | 0.00 | 0.00 | 0.00 | 58 | 1015.9 |
| 20260905155803 | 33 | 338 | 3.2 | 8.0 | 0.00 | 0.00 | 0.00 | 57 | 1015.6 |
| 20260905155306 | 33 | 312 | 3.2 | 8.0 | 0.00 | 0.00 | 0.00 | 57 | 1015.6 |
| 20260905154803 | 32 | 331 | 4.8 | 9.7 | 0.00 | 0.00 | 0.00 | 61 | 1015.9 |
| 20260905154304 | 32 | 317 | 8.0 | 9.7 | 0.00 | 0.00 | 0.00 | 60 | 1015.9 |
| 20260905153804 | 32 | 323 | 4.8 | 11.3 | 0.00 | 0.00 | 0.00 | 61 | 1015.9 |
| 20260905153304 | 32 | 324 | 6.4 | 11.3 | 0.00 | 0.00 | 0.00 | 61 | 1015.9 |
| 20260905152804 | 32 | 322 | 4.8 | 8.0 | 0.00 | 0.00 | 0.00 | 60 | 1015.9 |
| 20260905152306 | 33 | 336 | 3.2 | 8.0 | 0.00 | 0.00 | 0.00 | 59 | 1015.9 |
| 20260905151803 | 32 | 282 | 3.2 | 6.4 | 0.00 | 0.00 | 0.00 | 61 | 1015.9 |
| 20260905151303 | 32 | 346 | 4.8 | 8.0 | 0.00 | 0.00 | 0.00 | 62 | 1016.3 |
| 20260905150803 | 31 | 266 | 3.2 | 9.7 | 0.00 | 0.00 | 0.00 | 64 | 1016.3 |
| 20260905150303 | 32 | 312 | 4.8 | 14.5 | 0.00 | 0.00 | 0.00 | 62 | 1015.9 |
| 20260905145804 | 32 | 318 | 1.6 | 14.5 | 0.00 | 0.00 | 0.00 | 64 | 1015.9 |
| 20260905145306 | 31 | 311 | 4.8 | 11.3 | 0.00 | 0.00 | 0.00 | 67 | 1015.9 |
| 20260905144804 | 30 | 161 | 1.6 | 11.3 | 0.00 | 0.00 | 0.00 | 68 | 1015.9 |
| 20260905144303 | 30 | 4 | 6.4 | 11.3 | 0.00 | 0.00 | 0.00 | 68 | 1016.3 |
| 20260905143805 | 30 | 339 | 3.2 | 9.7 | 0.00 | 0.00 | 0.00 | 68 | 1016.3 |
| 20260905143304 | 30 | 74 | 3.2 | 11.3 | 0.00 | 0.00 | 0.00 | 68 | 1016.3 |
| 20260905142804 | 30 | 212 | 3.2 | 11.3 | 0.00 | 0.00 | 0.00 | 69 | 1015.9 |
| 20260905142306 | 30 | 350 | 8.0 | 11.3 | 0.00 | 0.00 | 0.00 | 68 | 1015.9 |
| 20260905141803 | 29 | 30 | 4.8 | 9.7 | 0.00 | 0.00 | 0.00 | 71 | 1015.9 |
| 20260905141303 | 29 | 263 | 4.8 | 9.7 | 0.00 | 0.00 | 0.00 | 72 | 1016.3 |
| 20260905140804 | 29 | 343 | 8.0 | 8.0 | 0.00 | 0.00 | 0.00 | 72 | 1015.9 |
| 20260905140304 | 29 | 4.8 | 8.0 | 0.00 | 0.00 | 0.00 | 72 | 1015.9 | |
| 20260905135803 | 29 | 222 | 3.2 | 6.4 | 0.00 | 0.00 | 0.00 | 73 | 1015.9 |
| 20260905135306 | 28 | 300 | 1.6 | 8.0 | 0.00 | 0.00 | 0.00 | 74 | 1015.9 |
| 20260905134803 | 28 | 312 | 4.8 | 8.0 | 0.00 | 0.00 | 0.00 | 75 | 1015.9 |
| 20260905134303 | 28 | 350 | 6.4 | 8.0 | 0.00 | 0.00 | 0.00 | 75 | 1015.9 |
| 20260905133804 | 28 | 52 | 3.2 | 8.0 | 0.00 | 0.00 | 0.00 | 77 | 1015.9 |
| 20260905133304 | 27 | 315 | 1.6 | 8.0 | 0.00 | 0.00 | 0.00 | 78 | 1016.3 |
| 20260905132804 | 27 | 338 | 3.2 | 8.0 | 0.00 | 0.00 | 0.00 | 78 | 1015.9 |
| 20260905132305 | 27 | 323 | 1.6 | 6.4 | 0.00 | 0.00 | 0.00 | 81 | 1016.3 |
| 20260905131803 | 27 | 335 | 6.4 | 8.0 | 0.00 | 0.00 | 0.00 | 81 | 1016.3 |
| 20260905131303 | 26 | 353 | 0.0 | 8.0 | 0.00 | 0.00 | 0.00 | 84 | 1016.3 |
| 20260905130803 | 26 | 329 | 3.2 | 4.8 | 0.00 | 0.00 | 0.00 | 85 | 1016.3 |
| 20260905130304 | 26 | 332 | 3.2 | 4.8 | 0.00 | 0.00 | 0.00 | 86 | 1016.3 |
| 20260905125803 | 25 | 138 | 0.0 | 4.8 | 0.00 | 0.00 | 0.00 | 88 | 1015.9 |
| 20260905125305 | 25 | 321 | 3.2 | 8.0 | 0.00 | 0.00 | 0.00 | 89 | 1015.9 |
| 20260905124803 | 25 | 10 | 1.6 | 8.0 | 0.00 | 0.00 | 0.00 | 89 | 1016.3 |
| 20260905124304 | 25 | 15 | 3.2 | 6.4 | 0.00 | 0.00 | 0.00 | 89 | 1015.9 |
| 20260905123803 | 25 | 6 | 3.2 | 6.4 | 0.00 | 0.00 | 0.00 | 89 | 1016.3 |
| 20260905123304 | 25 | 332 | 4.8 | 6.4 | 0.00 | 0.00 | 0.00 | 90 | 1015.9 |
| 20260905122803 | 24 | 349 | 1.6 | 4.8 | 0.00 | 0.00 | 0.00 | 92 | 1016.3 |
| 20260905122306 | 23 | 27 | 1.6 | 4.8 | 0.00 | 0.00 | 0.00 | 93 | 1015.9 |
| 20260905121803 | 23 | 255 | 3.2 | 4.8 | 0.00 | 0.00 | 0.00 | 93 | 1015.9 |
| 20260905121303 | 23 | 126 | 0.0 | 4.8 | 0.00 | 0.00 | 0.00 | 93 | 1015.9 |
| 20260905120804 | 23 | 83 | 1.6 | 4.8 | 0.00 | 0.00 | 0.00 | 93 | 1015.9 |
| 20260905120303 | 23 | 159 | 1.6 | 4.8 | 0.00 | 0.00 | 0.00 | 93 | 1015.9 |
| 20260905115803 | 23 | 128 | 3.2 | 4.8 | 0.00 | 0.00 | 0.00 | 91 | 1016.3 |
| 20260905115306 | 23 | 85 | 0.0 | 6.4 | 0.00 | 0.00 | 0.00 | 93 | 1015.9 |
| 20260905114803 | 23 | 78 | 1.6 | 6.4 | 0.00 | 0.00 | 0.00 | 94 | 1015.9 |
| 20260905114303 | 23 | 313 | 1.6 | 4.8 | 0.00 | 0.00 | 0.00 | 94 | 1016.3 |
| 20260905113803 | 23 | 160 | 0.0 | 4.8 | 0.00 | 0.00 | 0.00 | 94 | 1015.9 |
| 20260905113303 | 23 | 184 | 4.8 | 6.4 | 0.00 | 0.00 | 0.00 | 92 | 1015.6 |
| 20260905112803 | 23 | 354 | 3.2 | 6.4 | 0.00 | 0.00 | 0.00 | 93 | 1015.6 |
| 20260905112305 | 23 | 53 | 1.6 | 4.8 | 0.00 | 0.00 | 0.00 | 93 | 1015.6 |
| 20260905111803 | 23 | 102 | 0.0 | 4.8 | 0.00 | 0.00 | 0.00 | 94 | 1015.3 |
| 20260905111303 | 23 | 3 | 3.2 | 8.0 | 0.00 | 0.00 | 0.00 | 95 | 1015.3 |
| 20260905110804 | 23 | 307 | 3.2 | 8.0 | 0.00 | 0.00 | 0.00 | 95 | 1015.3 |
| 20260905110303 | 23 | 312 | 4.8 | 6.4 | 0.00 | 0.00 | 0.00 | 94 | 1015.3 |
| 20260905105803 | 23 | 314 | 1.6 | 6.4 | 0.00 | 0.00 | 0.00 | 94 | 1015.3 |
| 20260905105306 | 23 | 353 | 3.2 | 6.4 | 0.00 | 0.00 | 0.00 | 94 | 1014.6 |
| 20260905104803 | 23 | 349 | 1.6 | 4.8 | 0.00 | 0.00 | 0.00 | 93 | 1014.6 |
| 20260905104303 | 23 | 1 | 0.0 | 4.8 | 0.00 | 0.00 | 0.00 | 94 | 1014.6 |
| 20260905103804 | 23 | 240 | 0.0 | 4.8 | 0.00 | 0.00 | 0.00 | 93 | 1014.9 |
| 20260905103303 | 23 | 54 | 4.8 | 4.8 | 0.00 | 0.00 | 0.00 | 93 | 1014.9 |
| 20260905102803 | 23 | 30 | 0.0 | 4.8 | 0.00 | 0.00 | 0.00 | 93 | 1014.6 |
| 20260905102306 | 23 | 255 | 0.0 | 4.8 | 0.00 | 0.00 | 0.00 | 93 | 1014.6 |
| 20260905101804 | 23 | 339 | 3.2 | 6.4 | 0.00 | 0.00 | 0.00 | 93 | 1014.9 |
| 20260905101303 | 23 | 40 | 0.0 | 9.7 | 0.00 | 0.00 | 0.00 | 93 | 1014.9 |
| 20260905100803 | 23 | 339 | 4.8 | 9.7 | 0.00 | 0.00 | 0.00 | 92 | 1014.6 |
| 20260905100303 | 23 | 338 | 4.8 | 4.8 | 0.00 | 0.00 | 0.00 | 92 | 1014.6 |
| 20260905095804 | 23 | 79 | 3.2 | 6.4 | 0.00 | 0.00 | 0.00 | 93 | 1014.6 |
| 20260905095305 | 23 | 35 | 0.0 | 6.4 | 0.00 | 0.00 | 0.00 | 92 | 1014.9 |
| 20260905094803 | 23 | 223 | 1.6 | 6.4 | 0.00 | 0.00 | 0.00 | 91 | 1014.6 |
| 20260905094303 | 24 | 136 | 3.2 | 6.4 | 0.00 | 0.00 | 0.00 | 91 | 1014.6 |
| 20260905093803 | 23 | 188 | 0.0 | 6.4 | 0.00 | 0.00 | 0.00 | 92 | 1014.2 |
| 20260905093304 | 23 | 145 | 1.6 | 8.0 | 0.00 | 0.00 | 0.00 | 92 | 1014.6 |
| 20260905092803 | 23 | 82 | 3.2 | 8.0 | 0.00 | 0.00 | 0.00 | 93 | 1014.6 |
| 20260905092306 | 23 | 342 | 3.2 | 6.4 | 0.00 | 0.00 | 0.00 | 93 | 1014.6 |
| 20260905091803 | 23 | 16 | 1.6 | 6.4 | 0.00 | 0.00 | 0.00 | 93 | 1014.6 |
| 20260905091303 | 23 | 162 | 3.2 | 8.0 | 0.00 | 0.00 | 0.00 | 93 | 1014.6 |
| 20260905090803 | 23 | 75 | 1.6 | 8.0 | 0.00 | 0.00 | 0.00 | 94 | 1014.6 |
| 20260905090303 | 23 | 320 | 3.2 | 11.3 | 0.00 | 0.00 | 0.00 | 93 | 1014.6 |
| 20260905085804 | 23 | 43 | 3.2 | 11.3 | 0.00 | 0.00 | 0.00 | 94 | 1014.2 |
| 20260905085305 | 23 | 19 | 3.2 | 8.0 | 0.00 | 0.00 | 0.00 | 94 | 1014.2 |
| 20260905084803 | 23 | 268 | 3.2 | 8.0 | 0.00 | 0.00 | 0.00 | 94 | 1014.2 |
| 20260905084303 | 23 | 255 | 0.0 | 9.7 | 0.00 | 0.00 | 0.00 | 94 | 1014.2 |
| 20260905083803 | 23 | 237 | 3.2 | 9.7 | 0.00 | 0.00 | 0.00 | 94 | 1014.6 |
| 20260905083303 | 23 | 161 | 3.2 | 6.4 | 0.00 | 0.00 | 0.00 | 93 | 1014.2 |
| 20260905082803 | 24 | 171 | 0.0 | 6.4 | 0.00 | 0.00 | 0.00 | 92 | 1014.6 |
| 20260905082307 | 24 | 136 | 4.8 | 9.7 | 0.00 | 0.00 | 0.00 | 92 | 1014.6 |
| 20260905081804 | 23 | 220 | 4.8 | 6.4 | 0.00 | 0.00 | 0.00 | 93 | 1014.2 |
| 20260905081304 | 23 | 17 | 0.0 | 11.3 | 0.00 | 0.00 | 0.00 | 93 | 1014.2 |
| 20260905080803 | 23 | 307 | 1.6 | 14.5 | 0.00 | 0.00 | 0.00 | 93 | 1014.6 |
| 20260905080303 | 24 | 318 | 3.2 | 14.5 | 0.00 | 0.00 | 0.00 | 92 | 1014.6 |
| 20260905075803 | 24 | 303 | 3.2 | 8.0 | 0.00 | 0.00 | 0.00 | 92 | 1014.6 |
| 20260905075306 | 24 | 96 | 0.0 | 6.4 | 0.00 | 0.00 | 0.00 | 92 | 1014.6 |
| 20260905074803 | 24 | 10 | 1.6 | 8.0 | 0.00 | 0.00 | 0.00 | 93 | 1014.6 |
| 20260905074303 | 24 | 156 | 0.0 | 8.0 | 0.00 | 0.00 | 0.00 | 93 | 1014.2 |
| 20260905073803 | 24 | 213 | 0.0 | 6.4 | 0.00 | 0.00 | 0.00 | 94 | 1014.6 |
| 20260905073303 | 24 | 145 | 1.6 | 8.0 | 0.00 | 0.00 | 0.00 | 93 | 1014.6 |
| 20260905072803 | 24 | 152 | 1.6 | 8.0 | 0.00 | 0.00 | 0.00 | 93 | 1014.2 |
| 20260905072306 | 24 | 147 | 3.2 | 8.0 | 0.00 | 0.00 | 0.00 | 93 | 1014.6 |
| 20260905071803 | 24 | 105 | 3.2 | 6.4 | 0.00 | 0.00 | 0.00 | 92 | 1014.6 |
| 20260905071303 | 24 | 67 | 0.0 | 8.0 | 0.00 | 0.00 | 0.00 | 91 | 1014.6 |
| 20260905070803 | 24 | 265 | 1.6 | 9.7 | 0.00 | 0.00 | 0.00 | 91 | 1014.6 |
| 20260905070304 | 24 | 344 | 0.0 | 9.7 | 0.00 | 0.00 | 0.00 | 91 | 1014.2 |
| 20260905065803 | 24 | 36 | 3.2 | 6.4 | 0.00 | 0.00 | 0.00 | 91 | 1014.9 |
| 20260905065306 | 24 | 309 | 1.6 | 6.4 | 0.00 | 0.00 | 0.00 | 91 | 1014.6 |
| 20260905064803 | 25 | 164 | 0.0 | 1.6 | 0.00 | 0.00 | 0.00 | 90 | 1014.6 |
| 20260905064303 | 25 | 117 | 0.0 | 3.2 | 0.00 | 0.00 | 0.00 | 90 | 1014.6 |
| 20260905063803 | 25 | 314 | 0.0 | 4.8 | 0.00 | 0.00 | 0.00 | 91 | 1014.6 |
| 20260905063303 | 24 | 353 | 1.6 | 4.8 | 0.00 | 0.00 | 0.00 | 91 | 1014.9 |
| 20260905062803 | 25 | 344 | 1.6 | 4.8 | 0.00 | 0.00 | 0.00 | 91 | 1014.9 |
| 20260905062306 | 25 | 43 | 3.2 | 3.2 | 0.00 | 0.00 | 0.00 | 90 | 1014.9 |
| 20260905061804 | 25 | 3.2 | 3.2 | 0.00 | 0.00 | 0.00 | 89 | 1014.9 | |
| 20260905061303 | 25 | 335 | 0.0 | 3.2 | 0.00 | 0.00 | 0.00 | 90 | 1014.9 |
| 20260905060803 | 25 | 333 | 0.0 | 3.2 | 0.00 | 0.00 | 0.00 | 89 | 1014.6 |
| 20260905060304 | 25 | 315 | 0.0 | 3.2 | 0.00 | 0.00 | 0.00 | 89 | 1014.6 |
| 20260905055803 | 25 | 335 | 1.6 | 4.8 | 0.00 | 0.00 | 0.00 | 89 | 1014.6 |
| 20260905055306 | 25 | 323 | 0.0 | 4.8 | 0.00 | 0.00 | 0.00 | 89 | 1014.9 |
| 20260905054803 | 25 | 331 | 1.6 | 4.8 | 0.00 | 0.00 | 0.00 | 89 | 1014.9 |
| 20260905054303 | 25 | 311 | 1.6 | 4.8 | 0.00 | 0.00 | 0.00 | 87 | 1014.9 |
| 20260905053803 | 25 | 209 | 0.0 | 4.8 | 0.00 | 0.00 | 0.00 | 87 | 1014.9 |
| 20260905053303 | 25 | 276 | 3.2 | 4.8 | 0.00 | 0.00 | 0.00 | 90 | 1015.3 |
| 20260905052803 | 25 | 129 | 0.0 | 3.2 | 0.00 | 0.00 | 0.00 | 90 | 1014.9 |